Date,TemperatureHighF,TemperatureAvgF,TemperatureLowF,DewpointHighF,DewpointAvgF,DewpointLowF,HumidityHigh,HumidityAvg,HumidityLow,PressureMaxIn,PressureMinIn,WindSpeedMaxMPH,WindSpeedAvgMPH,GustSpeedMaxMPH,PrecipitationSumIn
2013-12-1,41,32,27,33,24,16,81,74,63,30.14,29.77,0,0,0,0.00
2013-12-2,36,31,25,31,26,20,87,82,80,29.77,29.65,0,0,0,0.00
2013-12-3,49,33,21,40,28,17,90,83,68,29.73,29.62,0,0,0,0.00
2013-12-4,46,28,19,35,22,16,89,80,59,29.94,29.71,0,0,0,0.00
2013-12-5,40,32,21,38,28,17,93,87,81,29.93,29.64,0,0,0,0.00
2013-12-6,45,39,31,43,36,28,93,90,80,29.90,29.60,0,0,0,0.00
2013-12-7,38,30,20,29,24,15,90,79,58,30.18,29.82,0,0,0,0.00
2013-12-8,33,24,15,22,16,10,83,73,60,30.31,30.18,0,0,0,0.00
2013-12-9,30,26,21,28,22,16,90,82,67,30.20,29.63,0,0,0,0.00
2013-12-10,32,26,19,28,22,12,91,82,65,29.71,29.54,0,0,0,0.00
2013-12-11,34,24,18,18,15,11,79,67,48,29.89,29.71,0,0,0,0.00
2013-12-12,28,16,7,16,6,1,81,64,37,30.00,29.76,0,0,0,0.00
2013-12-13,28,17,9,19,10,1,78,73,68,30.13,29.68,0,0,0,0.00
2013-12-14,14,10,5,9,1,-3,81,67,58,30.32,29.89,0,0,0,0.00
2013-12-15,28,20,13,22,15,8,82,80,75,29.90,29.25,0,0,0,0.00
2013-12-16,28,19,9,17,9,-1,82,64,47,29.91,29.46,0,0,0,0.00
2013-12-17,13,6,-5,8,0,-12,81,74,64,29.98,29.74,0,0,0,0.00
2013-12-18,36,19,12,26,13,7,81,77,62,29.78,29.66,0,0,0,0.00
2013-12-19,45,26,17,32,19,12,83,75,55,29.84,29.67,0,0,0,0.00
2013-12-20,37,28,21,30,23,16,88,82,77,29.85,29.66,0,0,0,0.00
2013-12-21,49,35,31,42,31,28,91,86,75,29.70,29.61,0,0,0,0.00
2013-12-22,40,36,33,38,34,31,94,92,91,29.72,29.46,0,0,0,0.00
2013-12-23,36,34,32,34,32,30,94,94,93,29.87,29.69,0,0,0,0.00
2013-12-24,39,28,21,30,20,10,93,73,53,29.97,29.79,0,0,0,0.00
2013-12-25,29,17,10,13,6,1,70,62,47,30.23,29.97,0,0,0,0.00
2013-12-26,28,21,13,22,15,8,83,77,66,30.19,29.83,0,0,0,0.00
2013-12-27,37,24,12,25,17,7,85,75,55,29.99,29.92,0,0,0,0.00
2013-12-28,43,26,13,34,20,8,85,77,65,29.93,29.73,0,0,0,0.00
2013-12-29,33,27,18,30,23,14,91,85,80,29.78,29.28,0,0,0,0.00
2013-12-30,36,28,13,31,21,6,93,76,56,29.92,29.33,0,0,0,0.00
2013-12-31,25,16,8,14,8,2,79,71,59,29.91,29.74,0,0,0,0.00